TimeMDT,TemperatureF,Dew PointF,Humidity,Sea Level PressureIn,VisibilityMPH,Wind Direction,Wind SpeedMPH,Gust SpeedMPH,PrecipitationIn,Events,Conditions,WindDirDegrees,DateUTC
12:53 AM,48.9,43.0,80,29.67,10.0,NNW,5.8,-,N/A,,Clear,330,2013-06-24 06:53:00
1:53 AM,48.9,43.0,80,29.68,10.0,West,9.2,-,N/A,,Clear,270,2013-06-24 07:53:00
2:53 AM,51.1,43.0,74,29.64,10.0,NW,4.6,-,N/A,,Clear,310,2013-06-24 08:53:00
3:53 AM,48.0,42.1,80,29.64,10.0,NW,4.6,-,N/A,,Clear,320,2013-06-24 09:53:00
4:53 AM,53.1,37.9,57,29.62,10.0,SW,8.1,-,N/A,,Clear,230,2013-06-24 10:53:00
5:53 AM,46.0,42.1,86,29.66,10.0,Calm,Calm,-,N/A,,Clear,0,2013-06-24 11:53:00
6:53 AM,57.0,39.9,53,29.63,10.0,WSW,6.9,-,N/A,,Clear,240,2013-06-24 12:53:00
7:53 AM,60.1,43.0,53,29.64,10.0,Calm,Calm,-,N/A,,Clear,0,2013-06-24 13:53:00
8:53 AM,70.0,42.1,36,29.63,10.0,Calm,Calm,-,N/A,,Clear,0,2013-06-24 14:53:00
9:53 AM,79.0,36.0,21,29.60,10.0,SSW,12.7,18.4,N/A,,Clear,210,2013-06-24 15:53:00
10:53 AM,82.0,32.0,16,29.59,10.0,SSW,8.1,-,N/A,,Clear,210,2013-06-24 16:53:00
11:53 AM,87.1,27.0,11,29.58,10.0,SW,16.1,-,N/A,,Clear,230,2013-06-24 17:53:00
12:53 PM,87.1,23.0,10,29.57,10.0,South,16.1,24.2,N/A,,Clear,190,2013-06-24 18:53:00
1:53 PM,88.0,21.9,9,29.55,10.0,SW,15.0,26.5,N/A,,Clear,220,2013-06-24 19:53:00
2:53 PM,89.1,23.0,9,29.53,10.0,SSW,21.9,29.9,N/A,,Clear,200,2013-06-24 20:53:00
3:53 PM,90.0,21.0,8,29.53,10.0,South,20.7,34.5,N/A,,Clear,190,2013-06-24 21:53:00
4:53 PM,90.0,19.9,8,29.51,10.0,SSW,23.0,34.5,N/A,,Clear,210,2013-06-24 22:53:00
5:53 PM,87.1,21.9,9,29.53,10.0,SW,23.0,32.2,N/A,,Clear,230,2013-06-24 23:53:00
6:53 PM,82.9,21.0,10,29.52,10.0,SW,13.8,23.0,N/A,,Clear,220,2013-06-25 00:53:00
7:53 PM,78.1,24.1,14,29.53,10.0,SSW,9.2,-,N/A,,Clear,210,2013-06-25 01:53:00
8:53 PM,73.9,21.9,14,29.53,10.0,SSW,11.5,-,N/A,,Clear,210,2013-06-25 02:53:00
9:53 PM,70.0,24.1,18,29.54,10.0,SSW,8.1,-,N/A,,Clear,200,2013-06-25 03:53:00
10:53 PM,71.1,24.1,17,29.53,10.0,SSW,11.5,-,N/A,,Clear,200,2013-06-25 04:53:00
11:53 PM,75.0,28.0,18,29.55,10.0,WSW,20.7,31.1,N/A,,Clear,240,2013-06-25 05:53:00